Theta_e
318 317 318 316 315 315 317 316 317 318 318 317 316 315 314 313 308 306 307 310 311 315 317 315 319 322 319 318 322 324 323 323 321 323 323 325 328 324 317 316 319 323 325 327 330 333 334 335 336 337 338 339 340 340 341 342 343 343 343 344 343 340 337 336 336 336 337 338 338 338 337 336 336 335
317 317 317 316 314 316 316 315 317 316 315 314 314 314 314 313 309 308 306 307 311 312 314 315 314 317 320 322 320 319 318 319 318 319 320 320 322 318 315 314 316 319 318 318 320 325 329 332 334 335 335 337 337 338 338 339 339 340 341 339 336 333 331 333 336 337 338 338 338 338 337 336 335 335
316 315 314 314 313 315 315 315 315 316 314 313 312 312 313 313 312 310 307 304 309 312 310 313 315 315 316 315 315 314 314 315 317 318 319 318 316 316 318 315 314 315 314 315 316 319 324 328 331 332 332 332 333 335 335 336 336 334 330 328 327 328 328 332 335 336 337 338 338 338 337 337 336 336
314 314 313 312 312 312 312 314 314 312 313 314 312 312 312 311 311 310 308 306 306 310 311 312 314 316 316 316 315 315 315 315 316 317 317 318 317 318 319 316 315 315 314 314 314 316 320 323 325 327 327 329 330 331 331 331 327 323 324 325 325 324 323 327 332 335 336 338 338 338 338 337 337 337
312 311 311 310 311 312 311 311 311 310 311 311 311 311 310 309 311 309 308 305 306 309 313 312 312 314 316 314 316 314 316 317 317 316 318 319 319 319 319 319 314 313 313 313 313 313 313 313 315 319 324 325 323 323 321 315 315 318 322 322 320 319 319 321 326 332 334 336 337 337 338 337 337 336
310 310 309 309 310 310 309 310 310 309 310 309 309 309 309 309 309 311 307 306 306 305 310 310 312 312 314 311 314 314 314 315 316 316 317 318 318 317 318 318 319 313 312 312 312 312 311 311 310 311 314 313 310 309 309 309 309 311 313 314 313 313 314 316 319 324 329 332 334 335 335 334 334 333
309 309 309 309 309 310 309 310 310 310 310 310 309 309 309 309 309 309 309 307 305 305 306 309 309 310 311 311 311 312 313 313 313 313 313 314 315 317 318 318 318 312 311 311 311 311 311 310 309 309 309 309 309 309 309 309 309 308 309 309 309 309 310 311 313 318 324 326 328 330 331 331 330 330
308 308 308 308 309 309 308 308 309 310 310 309 309 309 310 310 309 309 309 309 307 305 303 306 306 308 308 309 310 311 311 311 312 313 314 316 316 317 317 318 318 316 311 310 310 310 310 309 309 309 309 309 309 309 309 309 308 308 308 308 308 308 308 308 309 310 316 318 319 321 323 324 326 329
307 307 307 307 308 308 307 307 307 308 308 307 308 307 308 308 308 308 307 307 307 305 303 304 306 307 307 308 309 310 308 310 312 313 314 314 315 316 317 318 318 314 311 311 310 310 310 310 309 309 308 308 309 309 309 308 308 308 309 308 308 308 308 308 308 308 309 310 310 311 313 315 317 323
308 307 307 307 307 307 306 306 307 307 307 306 306 306 306 306 307 306 306 306 306 305 304 304 303 306 305 306 307 309 309 309 309 310 312 313 314 315 316 318 319 321 321 323 322 315 313 310 308 308 309 308 308 308 308 308 309 309 309 308 308 308 307 307 307 306 306 307 307 308 309 310 311 315
307 307 307 307 307 306 306 306 306 306 306 305 305 306 306 306 306 305 305 305 305 305 304 304 305 304 306 306 304 307 309 308 307 307 308 309 313 314 314 315 317 319 318 316 313 315 315 314 316 310 308 308 307 307 308 309 309 310 310 309 308 308 307 307 306 306 305 305 305 305 306 306 308 311
307 307 307 307 306 306 306 306 305 305 304 305 305 305 305 305 305 304 304 304 304 304 305 304 303 304 303 305 306 307 306 305 306 308 307 306 307 309 311 313 313 316 318 318 318 315 316 316 314 309 309 309 308 309 309 309 310 311 311 310 309 308 307 307 306 306 306 305 305 304 304 304 305 306
306 306 306 306 306 305 303 301 300 300 300 302 302 304 304 304 303 303 303 302 302 302 302 302 303 302 303 304 304 304 303 303 303 305 306 304 305 307 308 311 314 315 315 317 319 320 321 322 324 325 327 326 319 318 310 315 314 312 311 310 309 307 307 306 306 305 305 305 305 304 304 304 304 304
305 304 304 305 303 301 301 301 300 299 299 299 301 302 302 302 301 300 300 300 301 300 299 300 301 301 301 302 304 303 304 305 306 304 304 303 304 305 306 308 311 314 315 314 313 315 319 320 320 321 321 322 324 327 331 329 326 320 312 310 308 307 306 305 305 304 304 304 304 304 304 303 303 303
303 304 304 304 303 303 302 303 300 300 299 299 299 298 298 298 299 299 298 299 300 299 299 300 300 300 300 301 303 303 303 304 304 303 304 304 303 302 301 301 307 312 313 311 310 311 316 317 316 317 319 320 323 323 327 314 316 312 309 308 307 306 305 304 304 304 303 303 303 303 303 303 303 302
303 303 303 303 303 303 303 303 303 302 300 298 297 296 296 296 296 296 299 299 298 299 298 299 299 300 299 300 302 302 303 302 302 302 302 302 302 302 301 302 302 308 311 308 306 307 312 313 313 314 317 320 322 322 317 314 319 317 313 310 307 306 305 304 304 303 303 303 302 302 302 301 302 301
302 303 303 303 303 303 302 302 303 302 303 302 299 298 297 297 295 292 292 294 300 300 299 298 298 299 300 300 301 303 302 302 299 300 299 300 300 301 300 301 302 305 308 305 304 304 309 312 312 312 316 320 324 325 315 314 316 314 310 307 306 305 304 304 303 303 302 302 301 301 301 300 301 301
303 303 301 301 302 303 303 303 303 302 302 302 302 303 304 304 303 299 294 293 293 298 300 300 299 301 302 300 302 303 303 301 299 299 298 299 299 299 299 302 303 306 307 304 303 302 306 310 311 312 316 320 324 326 321 312 309 310 308 307 306 305 304 304 303 302 302 301 301 301 301 300 299 299
303 302 302 302 302 302 303 302 298 299 299 300 301 302 303 303 303 303 304 304 304 303 303 302 302 302 303 303 303 303 303 302 301 300 299 300 300 300 301 302 304 305 307 307 304 301 306 311 311 313 316 318 322 326 318 311 310 308 308 306 306 304 302 302 302 302 302 302 301 300 300 299 298 298
303 303 303 302 302 302 302 294 291 292 295 298 301 301 302 302 302 303 303 299 299 302 302 302 301 301 301 297 300 300 300 301 301 300 300 300 300 299 298 298 302 303 307 309 305 304 306 311 311 313 316 319 319 324 328 306 305 303 302 302 301 300 300 300 299 299 299 299 300 300 300 299 299 298
304 303 303 302 302 302 302 291 290 289 291 297 300 301 302 302 302 303 305 297 293 293 293 293 293 293 292 292 292 292 292 296 299 299 297 296 298 297 296 298 300 302 306 308 309 306 305 311 313 314 317 320 321 323 327 318 303 302 301 300 300 299 299 299 298 298 298 298 299 299 299 300 298 300
304 303 301 300 303 302 301 289 290 289 292 298 300 301 301 301 302 303 304 303 303 296 294 293 292 292 293 293 293 293 293 293 295 299 296 299 299 297 298 297 299 302 305 306 310 306 305 311 313 313 316 319 322 323 323 317 308 303 301 299 299 299 299 298 298 298 298 298 298 298 298 298 299 312
305 305 302 299 299 300 295 288 290 289 292 297 299 300 300 300 300 301 301 299 300 302 303 304 304 303 300 303 303 304 298 295 298 302 301 301 300 298 298 299 299 299 303 309 313 307 308 311 314 315 314 314 320 322 321 321 320 315 311 307 303 300 299 299 298 298 297 297 298 298 298 297 301 326
305 304 305 299 290 289 289 289 288 289 289 293 297 299 300 299 297 298 297 298 299 301 303 304 305 304 305 305 305 305 306 305 306 304 304 303 301 299 299 299 299 298 301 308 310 307 308 310 310 315 315 312 312 318 320 316 317 318 314 309 307 302 302 301 299 298 298 298 297 297 298 297 300 327
304 304 304 303 291 289 288 288 288 289 289 289 294 298 300 297 295 291 295 298 298 302 304 305 305 305 305 305 305 305 304 304 304 304 305 304 303 300 298 298 299 301 304 308 307 310 307 310 310 312 312 313 313 312 315 316 317 314 314 317 315 314 314 312 308 308 301 299 298 297 297 298 297 304
304 304 302 303 292 288 288 289 289 288 288 288 293 299 287 287 287 293 295 298 301 302 303 302 303 304 304 303 304 304 303 303 304 304 303 303 302 301 300 299 298 300 304 310 302 310 308 307 310 309 310 310 311 314 314 312 312 312 313 311 311 313 314 312 312 311 309 306 303 300 299 297 298 298
304 304 302 300 290 288 288 288 288 288 288 289 294 286 287 287 287 289 296 299 301 301 301 302 302 302 303 303 302 302 301 303 304 303 303 303 302 301 301 302 302 303 306 309 310 309 308 307 309 308 308 310 309 311 312 310 309 311 308 308 309 311 314 315 313 311 310 307 303 297 297 297 297 297
303 302 302 295 287 288 288 288 287 288 288 291 287 287 287 288 289 295 299 299 300 299 299 300 300 301 301 302 302 301 302 302 303 304 303 303 302 301 301 302 304 305 306 307 308 309 309 308 309 311 311 309 309 309 309 309 309 308 304 305 305 306 308 310 309 308 308 309 310 311 311 309 308 305
302 291 286 286 287 288 288 288 287 288 288 286 287 287 287 291 297 299 298 298 299 298 298 298 299 300 301 302 302 303 303 303 304 304 304 303 301 303 306 305 303 302 303 304 304 306 308 309 309 311 310 310 310 312 310 307 307 305 305 302 300 302 304 307 307 305 306 304 305 304 304 305 304 304
286 288 289 286 286 287 288 293 296 296 296 289 288 288 289 298 298 297 298 298 297 297 297 297 297 299 301 301 303 304 304 303 302 302 301 300 299 302 304 302 301 301 301 301 301 304 305 305 308 309 305 304 307 307 308 305 303 304 302 301 300 301 302 302 302 303 301 301 300 300 300 301 301 301
293 292 291 292 289 289 288 287 289 290 290 293 296 297 297 297 297 297 296 296 296 297 297 297 298 300 301 303 302 302 302 303 302 302 300 299 298 300 303 302 300 300 301 301 301 300 301 301 300 303 303 303 304 303 305 304 301 300 300 302 300 295 299 300 299 299 300 299 298 298 298 298 297 297
299 298 292 290 292 293 294 293 295 296 298 297 295 296 296 296 297 297 295 295 298 299 298 298 299 299 301 300 300 301 302 301 302 303 300 299 298 299 301 299 298 299 299 300 299 299 296 297 297 297 297 298 300 303 303 302 300 299 299 300 300 300 300 298 297 296 297 298 296 294 294 295 295 295
297 296 295 296 296 296 294 294 296 296 296 296 296 298 297 297 297 297 296 297 296 296 296 297 297 298 299 300 300 300 301 301 301 303 301 300 298 299 299 297 296 297 297 298 299 299 298 297 296 294 294 294 294 295 299 296 297 299 299 299 299 297 298 298 297 296 296 295 293 292 291 292 292 292
295 296 296 296 295 295 295 295 295 295 295 296 295 297 293 295 296 294 296 296 296 296 297 296 297 297 298 298 299 299 299 301 302 301 297 299 299 297 296 295 295 295 296 297 298 299 299 299 299 297 296 295 294 292 291 293 295 296 297 298 297 295 296 297 296 295 295 294 292 290 290 290 291 291
292 294 293 294 294 292 294 293 295 293 294 294 294 295 295 296 294 293 295 294 294 295 297 296 297 297 297 297 298 299 298 300 301 302 301 300 299 296 295 294 294 294 295 296 296 298 299 300 300 298 297 297 295 294 291 290 289 293 297 297 296 295 295 296 295 294 293 293 293 289 288 289 289 291
292 293 293 292 294 292 291 290 289 293 293 294 294 295 295 294 294 294 294 294 296 296 296 295 293 296 297 297 297 298 299 297 300 300 300 300 299 297 295 293 293 294 295 294 295 297 298 298 299 297 295 293 290 287 287 291 289 288 293 294 295 296 296 296 295 294 293 291 292 290 287 286 287 288
290 290 290 290 290 289 290 289 289 290 290 292 292 291 291 293 294 294 294 292 295 292 295 297 296 295 297 294 293 296 298 300 300 300 300 300 300 299 298 294 293 293 293 294 295 295 296 295 296 295 293 290 287 285 285 289 289 289 288 294 295 296 296 295 294 292 293 293 291 289 287 287 287 289
290 290 290 290 290 289 290 290 290 290 290 290 291 291 290 291 292 292 295 295 295 294 295 297 295 295 297 296 298 298 299 300 300 300 298 299 299 299 299 298 297 296 294 294 294 293 293 293 293 294 293 289 288 287 286 286 285 286 289 290 293 295 297 296 293 292 292 293 292 291 290 287 286 287
291 290 290 291 291 290 290 290 290 290 288 290 291 291 291 291 292 292 291 291 292 293 295 295 296 295 295 297 296 296 297 297 297 295 297 299 299 299 298 298 298 298 296 295 295 294 293 291 290 291 290 288 287 286 286 284 284 287 288 288 290 290 292 296 294 294 293 292 292 294 293 292 290 288
290 292 292 290 291 291 291 290 290 291 290 290 291 292 292 291 292 292 292 291 291 291 292 294 293 295 297 296 295 298 298 298 298 298 298 297 296 298 298 299 298 298 298 296 297 297 295 293 292 291 290 289 289 290 288 288 288 289 288 288 287 288 289 293 294 294 293 295 295 294 290 291 288 288
291 291 290 292 290 291 291 292 292 291 292 292 291 291 291 293 293 293 291 291 290 292 293 294 295 296 296 297 295 295 294 294 296 297 297 296 293 294 293 292 295 297 296 294 296 295 296 297 296 289 293 295 295 296 293 290 288 289 288 288 288 287 287 288 291 292 291 293 296 295 292 292 292 293
293 293 294 294 294 294 294 293 293 293 294 294 295 295 295 294 294 287 289 288 294 293 293 293 292 293 293 296 294 293 293 293 294 294 296 297 295 294 293 294 294 295 294 292 294 295 297 300 297 296 299 298 295 293 291 290 289 289 290 290 289 288 287 287 286 286 288 290 290 291 292 293 292 290
294 294 294 294 294 294 294 294 293 293 294 294 295 295 295 294 295 293 293 293 293 292 292 292 293 293 293 293 293 293 294 293 293 294 295 295 295 294 294 295 295 296 296 295 296 297 297 298 298 297 297 295 293 293 290 289 289 289 289 290 290 290 289 288 286 286 286 286 286 287 288 290 290 286
294 294 294 295 294 293 294 294 293 293 294 295 294 294 295 293 292 292 292 291 292 291 291 292 292 292 292 293 292 293 293 294 294 293 293 292 293 294 294 293 293 295 295 293 293 294 295 296 297 296 293 292 292 291 289 289 289 289 289 289 290 290 289 290 290 288 286 285 285 285 285 285 284 284
294 294 294 294 294 294 293 293 292 293 293 294 294 294 292 291 291 292 293 292 290 291 290 291 291 292 291 292 292 292 292 291 293 293 293 293 293 293 293 294 293 293 293 293 292 292 292 293 294 294 292 291 290 289 289 289 288 288 288 288 288 289 290 289 288 286 285 285 285 285 284 285 285 284
Wind_Speed
5 6 6 6 6 6 6 6 6 7 6 6 6 6 7 7 9 9 9 9 8 7 6 6 3 5 8 8 6 6 7 7 10 9 10 10 10 3 4 6 8 9 10 11 11 12 13 13 13 14 14 15 15 15 15 15 16 18 19 19 19 19 19 19 19 19 21 21 22 22 22 22 22 22
5 5 6 6 6 6 5 6 7 7 7 8 8 7 7 7 9 9 11 11 8 9 8 8 8 8 7 6 8 8 10 11 11 12 12 12 11 11 9 9 11 12 13 13 13 12 11 12 13 14 14 15 15 15 15 15 15 15 15 16 17 17 18 18 19 20 20 21 21 22 22 22 22 22
4 5 6 6 6 6 7 7 7 8 8 8 8 8 8 8 9 11 11 13 8 6 8 8 9 10 12 11 12 12 12 13 12 12 12 14 15 12 14 14 14 17 17 16 14 13 12 11 12 13 13 14 15 15 15 15 14 14 13 13 13 15 17 18 18 19 20 20 21 21 21 21 21 22
4 5 6 6 6 6 7 8 8 8 8 8 9 9 9 10 10 11 12 13 13 8 9 10 10 12 12 12 12 13 12 12 13 13 13 13 14 13 13 15 15 17 16 16 15 14 13 12 11 10 11 12 13 14 14 13 12 12 12 12 13 13 14 16 18 19 20 20 20 21 21 21 21 21
4 5 7 7 7 7 8 8 8 9 9 9 9 9 9 10 10 11 12 13 14 10 7 9 10 10 11 11 11 13 12 11 11 12 13 13 11 11 11 12 14 13 14 15 15 15 14 13 12 11 10 11 11 12 12 12 13 12 12 13 13 13 13 14 15 17 19 20 20 20 21 21 21 21
4 5 6 7 7 8 9 9 10 9 9 10 10 10 10 10 10 10 12 12 12 13 9 9 9 10 10 11 10 10 11 11 11 12 12 11 12 12 11 11 11 12 12 14 16 15 14 13 12 12 12 12 13 13 13 13 13 13 13 13 13 13 14 14 14 15 17 18 19 19 20 20 20 20
5 6 6 7 7 6 7 8 8 9 9 9 10 10 9 10 11 10 11 12 13 14 12 11 11 10 9 10 11 11 10 11 11 13 13 12 10 10 11 11 10 11 9 9 11 13 14 13 12 12 13 14 14 14 14 14 14 13 13 13 13 13 14 14 15 15 16 16 17 17 18 18 18 19
6 6 7 7 7 7 7 8 7 7 7 7 7 8 8 9 9 9 9 10 11 11 12 10 10 11 11 11 10 10 11 12 11 11 11 11 11 11 11 11 11 11 10 9 8 7 9 11 13 15 16 16 15 15 15 14 13 13 13 14 14 14 14 14 15 15 16 16 16 16 16 17 17 18
6 7 7 7 7 7 8 7 7 7 7 7 8 8 8 8 8 8 8 9 10 11 12 12 10 11 11 11 11 11 11 11 11 11 11 11 11 11 11 11 11 14 16 17 16 15 15 16 17 19 19 18 17 17 16 15 14 14 14 14 15 15 14 14 15 15 16 16 16 16 16 16 17 17
7 7 7 7 7 7 7 7 7 7 8 7 8 8 8 8 8 8 9 9 10 11 12 12 12 10 11 11 10 10 11 11 11 11 11 12 11 11 10 9 8 8 7 7 7 13 16 20 21 21 18 16 17 16 15 15 15 16 16 16 16 16 16 15 15 15 16 16 16 16 16 16 16 16
7 7 7 7 7 7 7 7 7 7 7 7 8 8 8 8 8 8 8 9 10 11 12 12 11 11 10 10 10 10 10 11 11 11 11 10 9 9 10 11 10 10 10 11 12 13 14 16 15 13 15 17 18 18 18 18 18 19 19 18 16 16 16 16 16 16 15 15 15 15 16 16 15 15
7 7 7 6 6 6 6 6 6 6 6 6 7 6 7 7 8 8 8 9 9 10 10 11 11 10 10 9 9 9 9 9 9 8 9 10 10 10 10 11 11 10 11 11 11 9 12 15 19 23 22 21 20 20 20 22 21 21 19 18 17 16 16 16 16 15 15 15 15 15 15 14 14 14
6 6 5 5 5 5 6 7 7 7 7 6 6 7 7 7 8 8 8 8 9 10 10 11 10 10 10 9 9 9 9 9 9 9 10 11 11 11 11 10 10 10 10 10 10 10 9 10 11 10 10 9 13 18 22 18 21 21 19 18 16 14 15 15 15 14 13 13 13 13 13 14 14 14
5 5 5 4 3 5 5 5 4 5 6 7 7 8 8 8 8 8 9 9 9 10 11 11 11 11 11 10 10 10 10 10 10 10 10 11 11 11 11 10 9 9 10 10 10 10 10 11 12 11 11 10 12 11 9 10 14 15 19 15 13 12 13 12 13 12 12 12 12 12 13 13 13 13
5 5 4 4 4 4 4 4 8 7 7 7 7 7 9 9 9 10 11 10 10 10 11 11 11 11 12 12 11 10 11 10 10 11 10 10 10 10 11 11 9 8 8 9 10 11 10 11 12 12 11 11 11 10 9 11 5 6 9 10 10 10 10 10 11 11 12 12 12 12 13 13 12 12
4 4 4 4 3 3 4 6 4 8 10 10 8 8 10 12 13 11 9 9 9 10 10 11 11 11 11 11 10 10 10 10 10 10 9 10 11 11 11 10 10 8 10 11 11 12 11 11 12 12 12 11 11 11 11 6 5 4 5 6 7 8 9 9 9 10 11 11 12 11 11 11 11 11
4 4 4 4 4 3 5 5 4 5 6 4 9 13 13 14 15 13 11 12 10 10 11 11 12 10 11 11 10 10 11 11 12 12 12 11 11 11 12 11 11 11 11 12 12 14 13 11 12 12 12 11 10 11 14 17 15 10 6 7 6 5 6 7 8 8 8 9 10 10 11 11 11 11
4 3 3 4 3 3 3 3 3 6 7 8 8 7 6 5 4 8 14 14 14 13 9 10 12 12 11 12 12 12 10 11 11 11 12 12 13 13 13 14 14 14 14 15 13 14 14 12 11 12 11 10 10 10 9 5 8 8 9 4 2 3 4 3 3 4 5 6 8 9 9 9 9 8
4 4 3 3 4 3 3 5 7 7 7 8 7 6 6 6 6 6 6 6 5 5 7 10 12 13 12 12 12 11 11 11 11 11 13 14 14 14 15 14 14 13 12 13 11 13 12 11 11 11 10 10 11 9 8 13 14 6 3 3 2 5 5 5 5 3 2 1 3 5 5 6 6 6
4 3 3 2 3 3 1 8 8 6 7 8 6 5 5 5 5 5 4 4 4 6 8 10 11 12 13 14 14 14 13 12 12 11 11 10 10 11 11 12 10 11 10 10 10 11 12 11 11 10 9 9 11 10 6 14 11 10 9 11 11 12 12 13 12 12 10 9 7 3 2 4 5 6
3 3 3 2 3 3 3 8 8 6 8 7 7 6 6 6 6 6 2 9 10 9 10 12 15 16 17 18 19 18 19 14 11 9 11 11 10 9 9 10 10 10 10 9 9 10 11 11 10 10 9 9 10 10 4 7 11 14 13 13 14 13 14 14 14 12 11 10 9 6 5 1 5 8
3 2 4 3 3 3 3 10 6 5 7 7 7 7 7 7 6 6 5 6 6 7 12 15 16 17 17 18 19 19 18 17 12 9 11 11 9 10 9 10 10 11 11 10 9 9 10 11 10 10 9 10 9 7 5 7 8 13 15 15 14 15 16 17 16 15 14 14 12 11 8 5 3 5
3 4 9 7 1 3 6 5 3 5 7 7 7 8 8 7 7 5 8 9 9 9 9 7 6 7 11 12 10 9 14 17 13 10 10 10 10 11 10 10 9 10 10 6 7 7 8 9 8 6 8 8 7 6 6 5 5 7 7 9 10 15 18 18 17 17 17 16 15 14 12 11 6 7
4 3 2 9 8 5 3 1 3 4 5 7 8 8 7 6 7 8 10 9 9 9 10 9 6 7 7 7 7 7 7 6 6 7 7 8 8 9 9 9 9 10 10 8 9 9 9 9 10 7 7 7 6 6 6 5 6 4 5 7 7 7 10 14 16 20 20 18 19 19 18 18 18 1
4 4 3 4 8 6 4 2 3 6 5 8 8 8 6 6 8 11 10 10 11 9 9 9 8 6 7 7 7 7 7 7 7 7 7 6 6 8 9 9 9 10 11 8 4 8 8 9 10 9 8 7 7 7 4 7 6 7 7 5 5 5 4 4 6 9 13 18 19 21 22 21 24 18
3 2 2 2 7 5 2 1 4 5 7 8 9 3 6 8 10 9 9 9 8 7 7 7 8 7 7 8 8 8 8 8 8 9 9 8 8 8 9 9 10 11 10 6 6 8 8 9 8 9 8 7 8 6 4 4 6 7 7 8 8 6 6 6 7 9 9 10 11 16 19 25 24 26
3 1 2 5 9 4 1 4 5 6 7 11 3 6 8 11 12 12 8 7 6 6 6 6 6 7 8 8 8 8 9 9 10 10 9 9 9 9 9 10 11 13 12 12 12 10 8 9 9 9 9 8 9 7 2 2 3 5 6 7 7 7 5 5 7 7 7 8 7 16 20 24 26 23
3 3 1 6 5 2 3 5 8 9 9 6 7 9 10 12 12 8 7 5 5 6 6 6 6 6 6 8 7 8 9 10 10 10 9 9 9 9 9 9 11 12 11 9 9 9 9 9 8 8 8 9 8 7 0 4 6 6 7 6 7 8 8 7 10 10 10 10 8 7 8 8 9 13
1 7 6 3 2 5 7 9 10 10 12 11 10 10 12 12 7 4 5 5 5 5 5 6 6 6 6 7 7 8 9 9 9 9 9 8 8 9 6 1 5 7 6 7 8 8 7 7 8 7 5 4 6 4 3 4 4 4 4 5 8 9 8 9 9 10 9 10 9 11 11 10 11 12
3 3 3 2 6 9 9 8 7 5 1 9 11 11 11 8 4 4 4 5 5 5 6 6 6 6 6 6 7 8 8 8 9 9 9 9 9 8 5 4 5 6 8 9 8 7 6 5 7 5 7 7 8 8 5 7 7 6 6 7 7 7 8 9 10 9 10 11 10 10 12 13 13 12
6 6 7 4 2 7 4 6 8 8 8 9 9 7 5 3 3 3 4 5 5 5 6 6 6 6 6 6 6 7 7 8 9 9 8 8 8 6 5 4 5 6 8 7 7 8 7 8 10 9 7 7 9 11 8 9 9 9 8 8 8 7 5 7 9 10 9 10 10 11 12 12 13 14
4 4 7 7 6 7 7 7 7 7 5 3 3 2 3 3 2 3 7 9 5 4 5 6 6 6 6 6 6 7 7 8 8 9 8 7 7 6 6 4 6 6 7 9 11 12 12 11 10 11 11 11 10 10 9 9 8 7 7 8 8 7 7 9 10 10 10 10 12 13 12 12 13 12
3 4 5 5 4 4 4 3 3 2 3 2 1 2 3 3 3 4 4 4 4 4 5 5 6 5 6 6 5 6 7 7 8 9 8 7 7 6 6 6 6 6 7 8 8 8 9 10 12 13 13 14 16 13 10 12 10 8 7 7 7 8 9 8 8 9 9 10 12 11 12 12 12 12
5 5 5 4 4 3 3 3 2 2 2 2 2 1 1 3 2 4 3 3 4 4 5 5 5 5 6 5 6 6 6 6 7 7 7 7 6 6 7 6 6 6 6 6 6 6 5 6 6 7 10 14 17 18 15 10 9 9 8 7 7 9 8 8 10 10 10 8 8 10 11 11 11 12
5 5 4 4 4 3 3 2 2 1 2 2 2 2 2 2 2 3 3 4 4 5 4 5 5 5 5 5 5 5 5 5 6 6 7 6 6 6 6 6 7 8 7 7 7 6 5 4 3 5 7 6 9 11 19 17 11 8 6 8 7 8 9 9 9 9 10 8 7 10 9 7 8 9
4 4 5 3 3 2 2 1 0 2 2 2 2 2 2 2 2 3 3 4 5 5 4 4 3 5 4 5 5 5 4 6 5 6 7 7 7 6 6 7 6 7 7 7 7 6 6 6 4 5 6 7 9 9 10 14 18 9 6 6 7 7 8 8 8 8 7 8 8 7 8 9 8 6
4 3 3 3 2 2 2 1 1 1 1 2 1 1 1 2 2 3 3 4 4 3 3 5 3 4 4 4 3 3 3 5 5 5 5 6 7 7 7 7 7 7 8 8 7 6 6 6 6 5 5 9 10 11 7 5 14 20 10 5 6 6 8 8 8 9 10 10 9 9 9 8 8 7
4 3 3 3 3 2 1 1 1 1 1 1 1 1 1 1 1 1 3 3 2 4 3 3 3 3 4 4 4 4 4 4 4 4 5 5 5 6 7 8 7 6 7 7 7 8 7 7 7 7 7 8 9 9 7 5 7 14 22 11 6 7 7 8 7 8 9 8 9 8 8 9 8 8
4 4 3 3 3 3 2 2 2 1 1 2 2 2 1 1 1 1 1 1 2 3 3 2 3 3 4 3 4 4 3 3 2 3 5 5 5 5 6 6 7 8 8 8 8 8 8 9 9 8 8 8 8 7 6 8 9 7 17 25 12 8 7 5 7 7 7 7 8 8 7 8 10 13
5 4 3 3 3 3 3 2 2 2 2 2 2 1 1 1 1 1 1 2 1 2 2 1 2 3 2 3 3 3 3 3 4 4 5 5 5 5 5 5 5 6 7 8 9 9 10 10 9 9 8 8 8 8 7 8 7 7 9 17 25 16 10 8 4 5 5 6 7 6 7 9 7 7
5 4 3 3 3 3 3 3 3 3 3 2 2 2 2 1 2 1 1 2 1 2 1 2 2 2 3 2 3 3 2 2 4 4 4 6 4 5 5 4 3 4 5 4 7 7 7 7 5 5 6 8 7 8 5 5 7 7 8 9 16 22 24 20 12 9 6 9 3 4 4 4 3 4
6 6 5 5 5 5 5 5 4 4 4 4 3 3 3 3 2 2 3 7 4 2 3 1 1 1 2 2 1 1 2 2 2 2 3 2 3 2 2 3 3 3 4 4 6 6 5 5 7 7 5 4 2 3 5 5 6 6 6 7 8 14 19 20 22 20 15 10 8 6 3 4 5 4
6 6 6 5 5 5 5 5 4 4 4 4 3 3 2 2 2 5 2 0 1 1 1 1 0 1 1 1 1 1 1 2 2 2 3 3 3 3 3 3 4 5 6 6 6 5 5 5 5 6 6 4 4 3 5 5 5 5 5 5 6 6 9 16 19 20 21 22 19 13 8 6 3 6
6 6 5 5 5 5 5 5 5 4 4 4 4 3 3 2 2 1 1 0 0 0 0 1 0 1 1 1 1 1 1 1 2 2 2 3 3 4 5 3 3 5 4 3 3 3 5 6 6 5 4 4 4 5 6 5 6 5 5 5 4 5 6 5 7 12 16 21 20 19 21 21 16 13
7 6 6 6 6 6 6 5 5 5 4 4 4 4 2 2 1 2 1 1 0 0 0 1 1 0 0 1 1 1 2 1 1 1 1 2 2 2 2 3 3 3 3 3 4 4 3 4 5 5 5 6 5 6 6 5 6 5 5 5 5 4 4 4 6 8 9 9 11 13 14 14 13 11
Wind_Direction
278 273 271 273 279 278 284 281 275 272 270 275 283 280 276 285 286 288 285 280 285 281 285 294 288 315 297 282 290 301 294 318 346 310 296 288 284 277 26 330 320 311 305 292 286 284 283 284 282 278 275 273 273 272 269 263 257 254 255 255 251 247 244 242 241 238 236 234 233 232 232 231 230 229
296 288 281 281 278 280 280 282 286 285 285 283 283 285 279 270 272 282 286 286 287 288 288 279 282 283 287 308 304 297 294 299 300 288 286 286 283 288 311 309 300 294 288 280 271 270 270 273 278 281 282 280 279 277 273 271 270 270 264 256 252 249 245 243 241 239 237 235 235 234 233 232 232 231
292 289 286 278 275 277 275 276 273 274 277 275 273 273 277 278 278 280 281 283 271 285 291 292 294 296 299 300 296 289 284 283 287 284 281 278 281 293 289 284 270 263 260 261 257 254 254 251 260 272 276 278 279 277 277 274 269 266 266 269 263 253 247 244 243 241 240 238 236 236 234 233 233 233
298 288 276 276 278 283 281 275 273 275 278 278 276 276 276 275 274 275 277 276 282 280 282 289 289 286 284 284 285 287 286 284 276 276 274 276 278 274 272 259 242 239 243 242 243 245 246 247 253 260 268 272 274 274 275 275 274 271 266 260 258 258 254 250 245 243 242 241 239 238 237 235 234 233
288 293 289 289 282 274 273 278 277 272 272 273 274 273 274 273 273 271 273 276 282 283 282 285 287 289 291 284 280 282 283 285 285 281 278 278 277 276 274 275 268 248 238 238 238 238 239 242 248 255 260 266 273 274 274 274 273 271 266 262 258 255 252 249 249 248 246 244 243 242 241 239 237 235
293 289 284 280 278 280 280 281 280 279 276 278 279 279 277 279 279 277 278 281 283 287 289 287 290 292 292 289 290 287 291 291 293 292 290 284 278 276 276 275 274 259 239 237 239 238 235 237 243 249 258 267 270 269 267 268 268 268 266 263 260 257 254 250 246 246 247 249 248 247 245 244 242 239
305 297 290 287 287 287 283 281 280 282 279 278 277 277 276 272 272 274 276 280 281 286 289 294 295 292 293 293 299 299 295 295 293 290 286 283 281 278 279 279 277 278 266 240 230 234 238 242 244 248 255 262 265 262 262 264 266 266 265 263 259 254 252 251 248 245 244 245 247 247 248 246 245 242
304 298 294 289 286 282 279 280 282 283 284 281 276 275 275 276 275 276 277 275 279 286 288 289 290 293 295 293 294 297 300 297 292 289 291 288 283 281 277 274 271 261 257 259 267 261 256 254 256 259 258 256 255 256 256 259 260 260 262 262 261 255 250 247 246 246 246 245 245 245 246 247 246 244
290 289 286 287 287 286 282 280 276 277 280 280 280 281 282 283 285 283 281 281 281 282 284 289 290 292 290 291 294 297 297 299 298 297 292 296 297 295 293 292 291 298 291 279 264 257 255 255 255 256 257 253 248 248 253 255 255 256 257 257 257 257 251 246 243 243 243 243 243 243 243 244 245 244
296 290 287 286 282 280 277 278 277 279 280 281 280 282 283 284 285 283 281 279 279 280 284 288 292 290 291 293 292 295 295 297 300 300 300 299 295 284 277 274 274 282 301 293 258 233 234 241 246 254 256 251 248 249 251 250 253 257 259 255 251 250 250 245 242 240 239 240 241 240 240 242 244 244
292 289 288 290 287 279 275 278 282 284 285 282 282 282 283 283 282 283 282 282 282 282 285 286 285 290 289 290 293 295 299 296 292 295 297 294 297 307 315 310 309 305 296 286 266 261 276 287 285 260 240 240 242 242 242 245 249 254 254 255 249 245 245 244 242 240 238 238 238 240 239 239 241 243
288 288 284 280 283 282 282 291 296 291 284 292 291 291 289 290 290 289 291 290 289 288 287 288 294 293 294 292 289 295 297 298 296 293 301 306 308 303 301 297 297 297 295 291 293 270 245 238 235 241 249 252 251 246 241 241 245 245 248 246 245 241 240 240 241 240 238 237 236 237 238 238 237 236
296 293 295 290 289 319 316 310 299 306 315 300 294 297 301 300 296 294 293 290 291 291 290 290 291 292 292 294 297 300 300 300 303 306 304 295 295 294 293 292 293 296 293 291 297 302 305 299 305 310 302 271 248 240 236 241 233 233 236 237 239 240 238 239 240 242 240 239 239 237 237 236 234 231
295 292 291 290 314 295 285 280 264 243 260 284 295 302 305 304 300 294 291 290 289 289 288 289 293 292 292 296 299 297 297 298 298 295 293 294 299 299 294 292 287 289 295 301 298 302 306 305 297 284 282 277 283 291 252 226 231 218 218 224 230 234 237 238 241 242 242 239 237 235 234 235 234 232
294 294 292 296 291 282 276 265 193 224 222 229 249 279 292 294 291 286 284 285 287 286 287 289 289 291 293 294 297 296 298 298 299 301 302 298 297 296 300 299 298 288 302 307 305 298 302 304 294 283 277 279 281 283 283 53 78 125 179 204 218 231 234 233 232 235 238 237 235 231 228 227 228 229
289 288 287 289 296 296 321 315 277 217 213 216 225 237 244 249 251 250 267 285 286 287 290 289 289 292 291 295 296 297 301 304 315 313 307 299 298 296 291 290 293 311 321 311 304 294 288 282 283 284 281 282 279 268 285 297 253 247 217 213 222 233 234 232 230 230 232 235 236 235 233 228 225 224
284 292 295 297 298 302 304 298 304 314 317 263 215 226 236 240 242 245 242 240 261 285 282 285 289 290 295 296 296 301 304 307 299 298 292 291 292 291 289 286 290 294 305 303 292 288 287 287 282 277 276 274 270 264 240 244 255 249 238 233 229 233 239 234 234 234 236 237 237 237 235 231 228 226
271 280 295 296 291 293 310 306 325 332 321 320 317 308 304 313 282 218 213 217 227 240 266 279 283 287 288 289 295 298 302 301 300 300 297 298 292 289 286 293 291 288 286 285 290 285 282 275 275 275 279 280 282 273 273 216 222 221 229 230 221 234 231 230 235 232 233 235 235 238 237 235 234 232
269 275 270 279 285 303 314 53 21 338 331 322 313 307 312 316 309 306 300 282 285 268 270 286 289 290 290 289 294 300 303 302 299 295 295 294 293 291 290 286 280 278 273 271 270 275 282 279 273 275 279 278 278 284 265 194 204 204 118 101 78 78 74 92 77 87 78 225 235 236 235 229 226 223
255 261 270 276 273 293 345 71 54 26 330 311 305 303 310 307 303 295 265 251 243 266 293 296 295 294 292 292 288 286 289 290 289 290 288 286 279 279 283 288 292 288 286 274 268 272 278 278 279 280 278 279 277 282 290 50 56 81 87 79 85 84 82 78 75 72 67 62 53 39 224 213 192 190
244 247 251 247 261 283 64 57 45 15 327 304 296 305 305 302 302 307 3 163 198 205 221 234 245 254 262 265 269 268 264 257 266 286 286 278 278 279 280 284 290 290 297 294 283 275 277 280 281 284 283 285 298 290 295 82 65 75 76 82 83 86 81 78 73 67 62 57 53 48 38 121 197 177
247 154 125 285 277 278 49 46 28 352 314 303 304 305 307 303 298 298 323 325 297 240 221 229 239 246 252 255 255 258 259 257 248 256 275 281 285 279 280 285 290 295 291 283 271 266 270 281 283 281 286 293 273 288 40 89 89 82 77 70 75 79 79 74 66 60 54 49 41 35 24 29 291 205
239 190 170 180 310 328 23 15 346 317 306 302 307 308 302 302 307 327 333 317 309 318 317 306 282 263 240 238 246 255 238 235 230 235 259 276 279 282 280 280 285 290 284 287 343 309 286 274 270 286 296 295 299 68 88 73 62 70 73 84 73 75 80 75 70 64 58 51 45 40 34 17 329 227
184 212 177 147 116 123 136 292 288 298 292 294 302 302 297 313 313 336 319 305 304 312 308 312 304 298 305 298 297 299 299 275 243 260 282 286 284 283 282 279 274 271 280 295 320 315 306 300 294 300 308 313 314 348 49 56 45 59 119 104 103 93 79 80 76 68 61 54 49 43 38 32 14 288
225 206 214 135 132 157 119 286 309 281 282 282 287 284 309 329 329 314 294 296 286 289 303 311 315 321 324 320 321 322 315 312 310 303 296 295 286 282 279 282 281 273 275 289 347 299 311 309 298 303 304 312 302 311 53 52 44 33 10 39 93 97 78 70 85 78 71 61 55 52 45 43 37 27
234 233 227 130 118 111 117 293 280 282 275 271 268 341 1 303 291 283 289 286 291 302 304 313 316 330 332 335 334 331 329 326 323 319 314 311 305 288 275 273 276 273 275 295 341 319 310 300 311 311 311 309 302 307 334 69 61 42 48 31 22 48 69 74 70 66 62 64 67 64 63 56 48 44
259 218 239 99 90 80 191 256 260 266 275 265 276 358 297 288 280 276 267 284 294 302 310 306 314 325 335 337 334 334 332 330 326 320 317 312 304 293 282 266 260 264 277 294 299 293 291 289 300 306 310 310 303 310 5 121 84 75 59 42 26 18 17 52 72 82 87 99 106 101 86 82 75 63
255 237 113 74 89 141 238 256 256 251 245 278 322 282 278 272 273 271 283 291 309 304 296 312 325 331 335 336 334 335 333 328 324 322 324 322 318 309 288 268 256 263 283 301 304 295 291 288 291 295 298 296 292 300 56 85 82 77 82 67 47 25 12 37 63 53 43 41 45 55 63 69 82 95
360 61 58 65 258 239 234 248 257 245 234 245 253 257 265 271 272 290 318 318 315 307 316 324 328 328 344 335 334 333 328 324 328 335 334 336 327 308 298 353 25 9 352 340 323 309 302 307 305 309 332 327 294 288 112 92 85 63 53 72 56 39 35 45 62 65 65 61 49 46 48 58 58 43
53 98 126 180 237 235 236 244 239 263 185 201 235 250 256 268 302 322 325 329 318 321 324 323 321 331 335 337 336 328 334 344 347 349 344 341 341 333 339 19 39 33 28 20 6 356 4 2 349 36 54 27 38 51 71 96 84 80 71 84 105 76 45 52 53 59 66 68 66 63 59 54 51 56
221 181 209 231 238 302 306 274 287 274 252 245 237 231 233 292 320 331 339 339 320 315 320 319 321 326 331 324 332 338 348 354 358 1 349 347 343 330 341 30 33 40 38 44 34 22 18 31 28 25 45 50 56 53 46 52 56 56 47 43 50 73 63 65 63 59 60 69 69 58 56 57 52 45
205 189 189 211 222 217 222 223 219 219 231 258 270 308 312 310 329 293 250 242 272 311 321 314 316 316 326 329 357 328 11 357 2 5 360 0 351 348 348 13 22 28 40 42 45 44 44 43 52 54 48 38 47 59 60 60 57 47 54 61 63 60 56 68 70 66 68 77 72 65 54 48 48 49
212 221 229 225 218 220 233 234 239 228 249 260 293 266 312 314 323 340 350 346 341 335 317 319 319 323 330 332 353 337 9 4 14 10 6 13 8 7 17 28 20 8 20 41 52 54 51 55 58 62 62 58 48 32 52 66 45 32 43 50 57 56 57 55 62 64 66 69 71 70 62 52 49 49
250 226 231 221 224 218 226 231 238 254 275 289 295 307 8 278 355 340 325 340 343 335 308 316 319 335 326 337 351 359 3 5 18 37 22 18 16 22 20 20 18 10 17 20 25 40 75 81 82 81 80 73 63 52 37 40 58 52 39 43 53 62 53 55 56 56 55 55 71 71 65 64 57 52
230 229 223 216 216 215 232 229 243 268 260 264 281 311 330 317 347 326 327 356 335 309 314 321 327 331 338 340 354 354 12 353 19 29 35 31 26 29 22 25 19 17 18 19 22 21 34 57 81 87 79 79 73 64 48 39 31 24 53 55 53 61 66 58 66 62 62 59 48 74 76 66 56 50
229 224 227 220 220 206 231 212 249 257 274 278 290 300 313 331 353 333 347 351 313 311 320 325 341 334 345 343 348 347 4 332 27 24 38 44 47 49 53 41 34 31 29 27 21 17 19 31 54 68 66 61 59 51 30 24 41 15 16 62 63 68 66 69 68 66 68 68 59 69 72 68 69 64
229 218 227 226 202 209 214 213 215 231 251 259 265 273 299 315 338 342 337 287 288 304 333 305 350 337 348 346 333 340 5 346 31 31 37 45 51 57 64 64 59 53 51 42 28 15 11 25 33 34 62 74 69 71 53 350 30 33 9 16 65 68 82 83 77 74 70 72 71 70 78 83 76 76
229 215 214 211 204 203 206 212 196 221 226 235 259 260 254 285 318 317 291 284 314 308 301 312 360 336 345 355 347 356 2 16 3 33 47 39 50 56 59 63 70 74 75 66 45 37 26 28 26 40 60 74 87 77 67 33 28 21 20 10 30 69 78 81 78 83 81 83 90 95 100 97 106 105
232 218 210 208 197 202 195 199 206 214 209 237 229 247 253 256 279 303 305 319 314 309 312 332 352 352 324 9 349 337 10 14 44 26 34 49 39 55 67 71 74 74 71 71 73 62 52 44 37 41 54 69 76 78 81 82 59 51 35 32 22 16 7 62 87 90 103 105 103 101 100 110 117 130
222 221 214 207 198 196 196 193 200 208 201 214 225 226 246 247 258 264 310 299 301 296 300 341 335 314 353 6 5 6 12 22 36 43 55 51 31 20 37 54 60 66 70 71 71 73 69 69 69 73 77 84 106 115 119 107 106 75 55 45 41 40 20 11 58 89 103 110 133 138 153 156 157 185
206 209 208 211 201 195 197 198 198 198 208 196 211 201 244 242 257 303 357 351 311 299 311 318 349 340 1 12 35 2 26 25 46 43 73 87 62 49 336 321 73 73 78 74 76 73 71 66 92 111 124 132 152 165 139 103 81 80 73 63 56 55 46 41 33 23 15 346 330 109 89 67 81 125
200 207 205 199 202 195 196 198 198 195 201 197 206 195 197 217 114 69 241 228 240 287 291 316 345 356 358 5 29 22 44 34 46 53 24 64 95 88 48 59 62 64 77 86 80 78 84 103 159 194 212 157 135 96 83 81 84 77 77 92 86 72 72 63 55 51 40 26 21 28 51 123 115 82
203 208 204 196 198 198 197 192 197 199 200 193 201 196 211 217 185 191 236 213 298 283 318 299 338 359 10 3 25 3 42 69 45 57 60 45 59 73 63 54 63 72 72 78 85 90 86 83 85 84 83 88 84 93 97 92 91 91 90 88 94 106 92 82 69 56 49 48 47 46 30 10 56 74
201 207 206 194 194 198 197 192 198 197 194 192 191 191 213 207 193 203 221 221 238 285 291 322 350 36 356 2 352 38 45 43 61 57 69 70 54 56 75 75 74 89 91 81 81 78 80 84 84 77 81 87 96 99 96 96 88 85 84 81 87 103 98 93 87 78 59 43 36 44 49 57 63 61
202 202 202 195 195 193 194 190 191 194 192 193 192 200 178 204 202 189 157 188 183 204 269 338 342 34 355 358 360 38 70 76 314 81 77 92 88 87 76 93 95 93 98 109 112 101 92 92 89 90 90 82 71 71 69 72 88 97 96 97 93 77 74 82 81 73 64 69 49 50 63 69 76 84